Location: Alma
(34.4195°N, 97.6123°W)
Time: 02:59:10
(UTC+00:00)

Envisat - Visible Passes

Search period start: 22 May 2024 00:00
Search period end: 01 June 2024 00:00
Orbit: 762 x 764 km, 98.3° (Epoch: 21 May)

Date Brightness Start Highest point End Pass type
(mag) Time Alt. Az. Time Alt. Az. Time Alt. Az.
22 May 4.7 08:56:43 10° NE 09:00:56 26° E 09:04:11 14° SE visible
22 May 4.0 10:35:27 10° N 10:39:48 30° WNW 10:44:09 10° SW visible
23 May 5.7 08:22:49 10° E 08:23:15 10° E 08:23:42 10° E visible
23 May 3.0 09:57:35 10° N 10:02:39 72° WNW 10:06:34 17° SSW visible
24 May 3.8 09:20:25 10° NNE 09:25:17 47° E 09:28:48 18° SSE visible
25 May 5.2 08:44:09 10° NE 08:47:45 19° E 08:51:02 11° SE visible
25 May 3.6 10:22:06 10° N 10:26:48 40° WNW 10:31:11 12° SW visible
26 May 3.0 09:44:28 10° NNE 09:49:34 85° E 09:53:24 18° S visible
27 May 4.3 09:07:33 10° NNE 09:12:09 34° E 09:15:37 16° SSE visible
27 May 4.3 10:46:57 10° NNW 10:50:52 23° WNW 10:54:47 10° WSW visible
28 May 5.5 08:31:56 10° ENE 08:34:32 14° E 08:37:08 10° ESE visible
28 May 3.2 10:08:50 10° N 10:13:46 54° WNW 10:18:00 14° SSW visible
29 May 3.3 09:31:26 10° NNE 09:36:28 62° E 09:40:12 18° S visible
30 May 4.8 08:54:48 10° NE 08:58:58 25° E 09:02:26 13° SE visible
30 May 4.0 10:33:28 10° N 10:37:53 31° WNW 10:42:16 10° SW visible
31 May 3.0 09:55:38 10° N 10:00:42 74° WNW 10:04:48 16° SSW visible
